#timestamp,LO_Frequency,Hit,StdDev 
1590649215.2,286047003.7,N
1590649235.1,286047007.3,N
1590649236.0,286047007.3,N
1590649255.8,286047010.4,N
1590649275.7,286047006.5,N
1590649295.5,286047005.1,N
1590649315.3,286047006.0,N
1590649335.2,286047008.6,N
1590649355.9,286047001.5,N
1590649375.7,286047005.9,N
1590649395.6,286047005.4,N
1590649415.4,286047003.8,N
1590649435.3,286047000.2,N
1590649455.1,286047000.7,N
1590649456.0,286047000.7,N
1590649475.8,286046998.1,N
1590649495.7,286047002.4,N
1590649515.5,286047001.5,N
1590649535.3,286047002.0,N
1590649555.2,286046991.9,N
1590649575.0,286046988.4,N
1590649575.9,286046988.4,N
1590649595.8,286046985.8,N
1590649615.6,286046989.6,N
1590649635.4,286046999.1,N
1590649655.3,286047004.1,N
1590649675.1,286046999.5,N
1590649695.8,286046996.0,N
1590649715.7,286046992.3,N
1590649735.5,286046990.1,N
1590649755.4,286046988.6,N
1590649775.2,286046999.0,N
1590649795.0,286047000.2,N
1590649795.9,286047000.2,N
1590649815.8,286046999.4,N
1590649835.6,286046997.9,N
1590649855.4,286046993.2,N
1590649875.3,286046991.6,N
1590649895.1,286046992.8,N
1590649915.9,286046992.9,N
1590649935.7,286046989.1,N
1590649955.5,286046990.0,N
1590649975.4,286046983.4,Y
1590649995.2,286046985.8,P
1590650015.0,286046992.1,N
1590650015.9,286046992.1,N
1590650035.8,286046994.6,N
1590650055.6,286046993.9,N
1590650075.5,286046990.3,Y
1590650095.3,286046995.2,P
1590650115.1,286046990.1,P
1590650135.9,286046994.6,N
1590650155.7,286046997.1,N
1590650175.5,286046992.9,N
1590650195.4,286046994.8,N
1590650215.2,286046999.0,N
1590650235.1,286046994.9,N
1590650236.0,286046994.9,N
1590650255.8,286047004.3,N
1590650275.6,286047006.3,N
1590650295.5,286047002.7,N
1590650315.3,286047002.4,N
1590650335.1,286046996.4,N
1590650355.9,286046995.2,N
1590650375.7,286046996.3,N
1590650395.6,286046997.2,N
1590650415.4,286047002.4,N
1590650435.2,286047000.4,N
1590650455.1,286046994.1,N
1590650456.0,286046994.1,N
1590650475.8,286046990.5,N
1590650495.6,286046989.4,N
1590650515.5,286046994.7,N
1590650535.3,286046997.4,N
1590650555.2,286046993.6,N
1590650575.9,286046994.3,N
1590650595.7,286046995.8,N
1590650615.6,286046996.2,N
1590650635.4,286046996.6,N
1590650655.2,286046993.9,N
1590650675.1,286046993.1,N
1590650676.0,286046993.1,N
1590650695.8,286046992.0,N
1590650715.7,286046994.4,N
1590650735.5,286046997.2,N
1590650755.3,286047002.7,N
1590650775.2,286046998.6,N
1590650795.0,286046995.5,N
1590650795.9,286046995.5,N
1590650815.7,286046995.4,N
1590650835.6,286046998.6,N
1590650855.4,286046998.3,N
1590650875.3,286046990.9,Y
1590650895.1,286046994.4,P
1590650896.0,286046994.4,P
1590650915.8,286046995.8,P
1590650935.7,286046997.9,Y
1590650955.5,286046997.1,P
1590650975.4,286046994.7,P
1590650995.2,286046995.0,P
1590651015.0,286046990.3,Y
1590651015.9,286046990.3,P
1590651035.8,286046990.0,P
1590651055.6,286046985.1,P
1590651075.4,286046983.9,Y
1590651095.3,286046997.5,P
1590651115.1,286046995.2,N
1590651135.9,286046994.0,N
1590651155.7,286046994.5,N
1590651175.5,286046994.5,N
1590651195.4,286046989.2,Y
1590651215.2,286046994.5,P
1590651235.0,286046998.6,P
1590651236.0,286046998.6,N
1590651255.8,286047004.3,N
1590651275.6,286047003.3,N
1590651295.5,286047011.2,N
1590651315.3,286047012.8,N
1590651335.1,286047008.2,N
1590651355.9,286047003.2,N
1590651375.7,286047001.4,N
1590651395.6,286047008.7,N
1590651415.4,286047007.0,N
1590651435.2,286047006.1,N
1590651455.1,286047006.4,N
1590651456.0,286047006.4,N
1590651475.8,286047002.6,N
1590651495.6,286047002.4,N
1590651515.5,286046991.3,N
1590651535.3,286046984.1,N
1590651555.1,286046983.7,N
1590651575.9,286046979.5,N
1590651595.7,286046977.0,N
1590651615.6,286046980.7,N
1590651635.4,286046980.8,N
1590651655.2,286046981.1,N
1590651675.1,286046989.9,N
1590651676.0,286046989.9,N
1590651695.8,286046986.0,N
1590651715.7,286046985.7,N
1590651735.5,286046995.6,N
1590651755.3,286047000.9,N
1590651775.2,286046997.5,N
1590651795.9,286046991.4,N
1590651815.7,286046990.2,N
1590651835.6,286046984.3,N
1590651855.4,286046978.8,N
1590651875.3,286046972.1,N
1590651895.1,286046968.5,N
1590651896.0,286046968.5,N
1590651915.8,286046972.3,N
1590651935.7,286046976.9,N
1590651955.5,286046986.9,N
1590651975.3,286046996.1,N
1590651995.2,286046998.4,N
1590652015.0,286046999.3,N
1590652015.9,286046999.3,N
1590652035.8,286046999.2,N
1590652055.6,286046998.3,N
1590652075.4,286046993.4,N
1590652095.3,286046993.1,N
1590652115.1,286046994.3,N
1590652135.8,286046996.3,N
1590652155.7,286046990.8,N
1590652175.5,286046987.4,N
1590652195.4,286046982.7,N
1590652215.2,286046976.6,N
1590652235.0,286046970.9,Y
1590652235.9,286046970.9,P
1590652255.8,286046988.7,N
1590652275.6,286047001.1,N
1590652295.4,286047007.5,N
1590652315.3,286047001.5,N
1590652335.1,286046997.5,N
1590652355.9,286046993.6,N
1590652375.7,286046988.0,N
1590652395.5,286046982.1,N
1590652415.4,286046981.3,N
1590652435.2,286046974.3,N
1590652455.0,286046974.0,N
1590652455.9,286046974.0,N
1590652475.8,286046970.4,N
1590652495.6,286046963.3,Y
1590652515.5,286046974.1,P
1590652535.3,286046972.9,P
1590652555.1,286046973.8,P
1590652575.9,286046970.6,Y
1590652595.7,286046990.1,P
1590652615.6,286046994.0,N
1590652635.4,286046994.0,N
1590652655.2,286046994.2,N
1590652675.1,286046995.6,N
1590652676.0,286046995.6,N
1590652695.8,286046996.6,N
1590652715.6,286047002.7,N
1590652735.5,286047001.4,N
1590652755.3,286046998.6,N
1590652775.2,286046994.3,N
1590652795.9,286046994.5,N
